Regional Weather Roundup
Issued by NWS Little Rock, AR

Home | Current Version | Previous Version | Text Only | Print | Product List | Glossary On
Versions: 1 2 3 4 5 6 7 8 9 10 11 12 13 14 15 16 17 18 19 20 21 22 23 24 25 26 27 28 29 30 31 32 33 34 35 36 37 38 39 40 41 42 43 44 45 46 47 48 49 50
000
ASUS44 KLZK 092105
RWRLZK

WEATHER ROUNDUP FOR ARKANSAS
NATIONAL WEATHER SERVICE LITTLE ROCK AR
300 PM CST FRI DEC 09 2016

NOTE: "FAIR" INDICATES FEW OR NO CLOUDS BELOW 12,000 FEET WITH NO
SIGNIFICANT WEATHER AND/OR OBSTRUCTIONS TO VISIBILITY.

ARZ001-003-010-029-092200-
NORTHWEST ARKANSAS

CITY           SKY/WX    TMP DP  RH WIND       PRES   REMARKS
FAYETTEVILLE   SUNNY     37  12  35 CALM      30.50F
FORT SMITH     SUNNY     39  15  37 NE7       30.55F
HARRISON       CLOUDY    32  12  43 VRB3      30.52F
BENTONVILLE    CLOUDY    34  10  37 SE6       30.51F WCI  29
ROGERS         CLOUDY    32  13  45 SE5       30.51F WCI  27
SILOAM SPGS    CLOUDY    36  10  35 S3        30.51S
HIGHFILL       CLOUDY    34  12  40 CALM      30.50F
SPRINGDALE     MOSUNNY   36   9  32 CALM      30.54S
$$

ARZ004-005-016-092200-
NORTH CENTRAL ARKANSAS

CITY           SKY/WX    TMP DP  RH WIND       PRES   REMARKS
BATESVILLE     SUNNY     36  14  41 CALM      30.58F
FLIPPIN        PTSUNNY   34  10  37 CALM      30.53F
MTN HOME       MOSUNNY   32  12  43 CALM      30.54F
$$

ARZ040-041-092200-
WEST CENTRAL ARKANSAS

CITY           SKY/WX    TMP DP  RH WIND       PRES   REMARKS
MENA           CLOUDY    41  16  36 CALM      30.51F
MOUNT IDA      SUNNY     40  13  33 VRB5      30.51F
$$

ARZ009-017-025-026-028-092200-
NORTHEAST ARKANSAS

CITY           SKY/WX    TMP DP  RH WIND       PRES   REMARKS
CORNING        FAIR      32  16  51 CALM      30.60F
JONESBORO      SUNNY     34  17  50 W3        30.59F
NEWPORT        SUNNY     32  18  56 NE5       30.60F WCI  27
WALNUT RIDGE   SUNNY     34  16  47 SE5       30.59F WCI  30
BLYTHEVILLE    SUNNY     38  19  46 MISG      30.61F
$$

ARZ022-023-033-042-044-092200-
CENTRAL ARKANSAS

CITY           SKY/WX    TMP DP  RH WIND       PRES   REMARKS
LITTLE ROCK    MOSUNNY   38  15  39 E6        30.58F
N LITTLE ROCK    N/A     38  17  42 E5        30.60F
JACKSONVILLE   SUNNY     39  15  38 E7        30.56F
SEARCY         SUNNY     38  15  39 VRB3      30.60F
HOT SPRINGS    SUNNY     40  16  37 S5        30.56F
RUSSELLVILLE   SUNNY     38  13  35 CALM      30.56F
CLINTON        FAIR      37  12  35 CALM      30.56F
$$

ARZ036-092200-
EAST ARKANSAS

CITY           SKY/WX    TMP DP  RH WIND       PRES   REMARKS
$$

ARZ050-053-066-070-073-092200-
SOUTHWEST ARKANSAS

CITY           SKY/WX    TMP DP  RH WIND       PRES   REMARKS
ARKADELPHIA    FAIR      40  18  41 CALM      30.59F
CAMDEN         SUNNY     45  14  29 CALM      30.58F
TEXARKANA      PTSUNNY   39  17  41 NE6       30.57F
EL DORADO      SUNNY     40  18  41 VRB3      30.57F
DE QUEEN       CLOUDY    40  15  36 VRB3      30.55F
$$

ARZ056-057-069-092200-
SOUTHEAST ARKANSAS

CITY           SKY/WX    TMP DP  RH WIND       PRES   REMARKS
PINE BLUFF     SUNNY     35  20  54 N7        30.60F WCI  29
STUTTGART      SUNNY     36  18  48 N6        30.60F
MONTICELLO     SUNNY     40  21  46 N6        30.58F

$$





USA.gov is the U.S. government's official web portal to all federal, state and local government web resources and services.